Hourly Data Report for September 14, 2017

All times are specified in Local Standard Time (LST). Add 1 hour to adjust for Daylight Saving Time where and when it is observed.

PANGNIRTUNG
NUNAVUT

66°08'36.300" N
65°42'40.500" W
22.60 m
2403049
71826
WXP

Download Data

Hourly Data (September 2017)
Hourly Data Report for September 14, 2017
Temp Definition
°C
Dew Point Temp Definition
°C
Rel Hum Definition
%
Wind Dir Definition
10's deg

Wind Spd Definition
km/h
Visibility Definition
km
Stn Press Definition
kPa
Hmdx Definition


Wind Chill Definition


Weather Definition


TIME
00:00 7.2 -0.4 59 8 22   99.79     LegendNANA
01:00 6.9 -0.7 58 8 32   99.78     LegendNANA
02:00 7.0 -0.4 59 8 24   99.83     LegendNANA
03:00 6.2 0.8 68 8 16   99.89     LegendNANA
04:00 5.3 0.9 73 9 24   99.88     LegendNANA
05:00 4.9 1.2 77 8 22   99.89     LegendNANA
06:00 4.8 0.8 76 9 18   99.86     LegendNANA
07:00 5.4 0.8 72 7 11   99.84     LegendNANA
08:00 5.5 1.7 77 1 3   99.83     LegendNANA
09:00 5.0 2.3 82 5 8   99.86     LegendNANA
10:00 3.7 2.4 91 27 6   99.86     LegendNANA
11:00 4.3 2.3 87 11 4   99.80     LegendNANA
12:00 3.9 2.5 91 25 4   99.77     LegendNANA
13:00 4.1 2.1 87 24 3   99.73     LegendNANA
14:00 3.1 2.5 96 25 10   99.67     LegendNANA
15:00 3.4 3.1 98 25 12   99.64     LegendNANA
16:00 3.3 2.9 97 25 5   99.64     LegendNANA
17:00 3.2 2.9 98 17 2   99.65     LegendNANA
18:00 2.9 2.7 99 22 4   99.65     LegendNANA
19:00 2.5 2.3 98 24 8   99.65     LegendNANA
20:00 2.6 2.4 98 24 2   99.65     LegendNANA
21:00 2.2 2.0 99 18 2   99.66     LegendNANA
22:00 2.7 2.5 99 12 5   99.66     LegendNANA
23:00 2.3 2.2 100 11 5   99.64     LegendNANA

Notes on Data Quality.

Legend

  • E = Estimated
  • M = Missing
  • NA = Not Available
  • ‡ = Partner data that is not subject to review by the National Climate Archives
Date modified: